Location: *
(58.4167°N, 22.5000°E)
Time: 21:01:03
(UTC+00:00)

Cosmos 1624 Rocket - Pass Details

Date: 22 September 2019
Orbit: 757 x 784 km, 74.0° (Epoch: 17 October)

Event Time Altitude Azimuth Distance (km) Brightness Sun altitude
Rises 17:39:42 0° 184° (S) 3,207 7.1 -9.7°
Reaches altitude 10° 17:42:09 10° 178° (S) 2,285 6.3 -10.1°
Maximum altitude 17:47:00 43° 108° (ESE) 1,067 4.3 -10.7°
Drops below altitude 10° 17:51:54 10° 39° (NE) 2,303 6.3 -11.3°
Sets 17:54:23 0° 33° (NNE) 3,235 7.1 -11.6°
